TimeCDT,TemperatureF,Dew PointF,Humidity,Sea Level PressureIn,VisibilityMPH,Wind Direction,Wind SpeedMPH,Gust SpeedMPH,PrecipitationIn,Events,Conditions,WindDirDegrees,DateUTC
12:58 AM,41.2,34.2,76,30.14,10.0,South,1.2,-,N/A,,Clear,180,2013-05-13 05:58:00
1:58 AM,40.6,35.2,81,30.13,10.0,Calm,Calm,-,N/A,,Clear,0,2013-05-13 06:58:00
2:58 AM,42.3,37.0,82,30.12,10.0,SSE,2.3,-,N/A,,Clear,150,2013-05-13 07:58:00
3:58 AM,45.9,35.8,68,30.11,10.0,SSE,2.3,-,N/A,,Clear,150,2013-05-13 08:58:00
4:58 AM,46.6,36.7,68,30.10,10.0,Calm,Calm,-,N/A,,Clear,0,2013-05-13 09:58:00
5:58 AM,44.6,36.7,74,30.10,10.0,SSE,3.5,-,N/A,,Mostly Cloudy,150,2013-05-13 10:58:00
6:58 AM,44.2,38.8,81,30.11,10.0,SSE,3.5,-,N/A,,Clear,150,2013-05-13 11:58:00
7:58 AM,52.2,43.3,72,30.12,10.0,SE,3.5,-,N/A,,Clear,140,2013-05-13 12:58:00
8:58 AM,59.4,44.1,57,30.10,10.0,South,12.7,-,N/A,,Clear,170,2013-05-13 13:58:00
9:58 AM,65.7,43.9,45,30.07,10.0,South,12.7,-,N/A,,Clear,180,2013-05-13 14:58:00
10:58 AM,69.3,44.2,40,30.06,10.0,SSW,11.5,-,N/A,,Clear,200,2013-05-13 15:58:00
11:58 AM,72.1,45.0,38,30.03,10.0,South,15.0,-,N/A,,Partly Cloudy,170,2013-05-13 16:58:00
12:58 PM,75.2,46.0,35,30.01,10.0,South,17.3,-,N/A,,Partly Cloudy,190,2013-05-13 17:58:00
1:58 PM,78.4,46.0,32,29.98,10.0,South,16.1,-,N/A,,Partly Cloudy,180,2013-05-13 18:58:00
3:58 PM,81.9,44.8,27,29.92,10.0,South,18.4,28.8,N/A,,Clear,180,2013-05-13 20:58:00
4:58 PM,82.2,44.6,27,29.90,10.0,SSW,17.3,25.3,N/A,,Clear,200,2013-05-13 21:58:00
5:58 PM,82.2,43.5,25,29.88,10.0,SSW,13.8,-,N/A,,Clear,200,2013-05-13 22:58:00
6:58 PM,81.3,45.0,28,29.88,10.0,SSW,12.7,-,N/A,,Clear,200,2013-05-13 23:58:00
7:58 PM,78.3,46.9,33,29.86,10.0,SSW,9.2,-,N/A,,Clear,200,2013-05-14 00:58:00
8:58 PM,73.4,48.6,41,29.85,10.0,South,6.9,-,N/A,,Clear,170,2013-05-14 01:58:00
9:58 PM,71.1,49.3,46,29.86,10.0,South,5.8,-,N/A,,Clear,170,2013-05-14 02:58:00
10:58 PM,70.2,50.2,49,29.86,10.0,South,3.5,-,N/A,,Clear,180,2013-05-14 03:58:00
11:58 PM,65.1,51.6,62,29.86,10.0,SSE,4.6,-,N/A,,Clear,150,2013-05-14 04:58:00